Date String (YYYY-MM-DD hh:mm:ss) UTC,Instrument flags,Ambient pressure (hPa),Sample flow (lpm),Bypass flow (lpm),Sample temperature (°C),Ambient temperature (°C),ASC tube jacket temperature (°C),LED temperature (°C),Box temperature (°C),Sample RH (%),Span deviation,Mass concentration (μg/m³),Mass concentration (μg/m³),Mass concentration (μg/m³)
DateTimeUTC,F1_M11,P_M11,Q1_M11,Q2_M11,T1_M11,T2_M11,T3_M11,T4_M11,T5_M11,U1_M11,ZSPAN_M11,X0_M11,X2_M11,X1_M11
2022-10-04 10:00:00,,0829.7,4.98,0.00,29.5,27.9,00.0,38.4,31.4,20.0,0000.0,0002.95,0002.07,0001.89
2022-10-04 10:01:00,,0829.8,5.01,0.00,29.5,27.9,00.0,38.4,31.3,19.9,0000.0,0002.96,0002.06,0001.88
2022-10-04 10:02:00,,0829.8,4.99,0.00,29.5,27.9,00.0,38.4,31.3,19.7,0000.0,0002.94,0002.06,0001.88
2022-10-04 10:03:00,,0829.8,5.00,0.00,29.5,27.9,00.0,38.3,31.3,19.5,0000.0,0003.03,0002.07,0001.87
2022-10-04 10:04:00,,0829.8,5.01,0.00,29.5,27.9,00.0,38.3,31.3,19.3,0000.0,0002.99,0002.06,0001.85
2022-10-04 10:05:00,,0829.8,5.00,0.00,29.5,27.9,00.0,38.3,31.3,19.3,0000.0,0003.02,0002.07,0001.86
2022-10-04 10:06:00,,0829.8,4.99,0.00,29.5,27.9,00.0,38.3,31.3,19.5,0000.0,0003.14,0002.10,0001.87
2022-10-04 10:07:00,,0829.8,5.00,0.00,29.5,27.9,00.0,38.3,31.3,19.2,0000.0,0003.23,0002.10,0001.87
2022-10-04 10:08:00,,0829.8,5.01,0.00,29.5,27.9,00.0,38.3,31.3,19.3,0000.0,0003.26,0002.09,0001.87
2022-10-04 10:09:00,,0829.8,4.98,0.00,29.5,27.9,00.0,38.3,31.3,19.3,0000.0,0003.28,0002.13,0001.88
2022-10-04 10:10:00,,0829.8,5.01,0.00,29.5,27.9,00.0,38.3,31.3,19.2,0000.0,0003.23,0002.11,0001.87
2022-10-04 10:11:00,,0829.8,5.01,0.00,29.5,27.9,00.0,38.3,31.3,19.1,0000.0,0003.03,0002.10,0001.87
2022-10-04 10:12:00,,0829.7,4.99,0.00,29.5,27.9,00.0,38.3,31.3,19.1,0000.0,0003.04,0002.10,0001.86
2022-10-04 10:13:00,,0829.8,5.00,0.00,29.5,27.9,00.0,38.3,31.3,19.1,0000.0,0003.78,0002.10,0001.84
2022-10-04 10:14:00,,0829.8,5.00,0.00,29.5,27.9,00.0,38.3,31.3,19.1,0000.0,0003.93,0002.12,0001.84
2022-10-04 10:15:00,,0829.8,4.99,0.00,29.5,27.9,00.0,38.3,31.3,19.1,0000.0,0003.96,0002.16,0001.84
2022-10-04 10:16:00,,0829.8,5.01,0.00,29.5,27.9,00.0,38.3,31.3,19.1,0000.0,0003.93,0002.15,0001.83
2022-10-04 10:17:00,,0829.8,5.00,0.00,29.5,27.9,00.0,38.3,31.3,19.2,0000.0,0003.79,0002.12,0001.83
2022-10-04 10:18:00,,0829.8,5.00,0.00,29.5,27.9,00.0,38.3,31.3,19.2,0000.0,0003.67,0002.11,0001.84
2022-10-04 10:19:00,,0829.8,4.99,0.00,29.5,27.9,00.0,38.3,31.3,19.2,0000.0,0003.56,0002.10,0001.83
2022-10-04 10:20:00,,0829.8,5.01,0.00,29.5,27.9,00.0,38.3,31.3,19.2,0000.0,0003.52,0002.07,0001.83
2022-10-04 10:21:00,,0829.8,4.98,0.00,29.4,27.8,00.0,38.3,31.2,19.2,0000.0,0003.51,0002.06,0001.83
2022-10-04 10:22:00,,0829.8,5.01,0.00,29.4,27.8,00.0,38.3,31.3,19.2,0000.0,0003.48,0002.05,0001.83
2022-10-04 10:23:00,,0829.8,5.00,0.00,29.4,27.8,00.0,38.3,31.3,19.1,0000.0,0003.46,0002.06,0001.84
2022-10-04 10:24:00,,0829.8,4.99,0.00,29.4,27.8,00.0,38.3,31.3,19.1,0000.0,0002.78,0002.11,0001.86
2022-10-04 10:25:00,,0829.8,5.01,0.00,29.4,27.8,00.0,38.2,31.2,19.1,0000.0,0002.63,0002.11,0001.87
2022-10-04 10:26:00,,0829.8,4.99,0.00,29.4,27.8,00.0,38.2,31.2,19.1,0000.0,0002.52,0002.07,0001.88
2022-10-04 10:27:00,,0829.8,5.01,0.00,29.4,27.8,00.0,38.2,31.2,19.1,0000.0,0002.51,0002.05,0001.88
2022-10-04 10:28:00,,0829.8,5.00,0.00,29.4,27.8,00.0,38.2,31.2,19.0,0000.0,0002.60,0002.09,0001.90
2022-10-04 10:29:00,,0829.8,5.00,0.00,29.4,27.8,00.0,38.2,31.2,18.9,0000.0,0002.62,0002.10,0001.90
2022-10-04 10:30:00,,0829.8,5.01,0.00,29.4,27.8,00.0,38.2,31.2,18.8,0000.0,0002.65,0002.12,0001.90
2022-10-04 10:31:00,,0829.8,4.99,0.00,29.4,27.8,00.0,38.2,31.2,18.9,0000.0,0002.66,0002.12,0001.91
2022-10-04 10:32:00,,0829.8,5.01,0.00,29.4,27.8,00.0,38.2,31.2,19.2,0000.0,0002.75,0002.15,0001.93
2022-10-04 10:33:00,,0829.8,4.99,0.00,29.4,27.8,00.0,38.2,31.2,19.3,0000.0,0002.86,0002.23,0001.97
2022-10-04 10:34:00,,0829.8,5.00,0.00,29.4,27.8,00.0,38.2,31.2,19.2,0000.0,0002.93,0002.27,0001.98
2022-10-04 10:35:00,,0829.8,5.01,0.00,29.4,27.8,00.0,38.2,31.2,19.0,0000.0,0003.01,0002.32,0002.00
2022-10-04 10:36:00,,0829.8,4.99,0.00,29.4,27.8,00.0,38.2,31.2,18.9,0000.0,0003.00,0002.31,0002.00
2022-10-04 10:37:00,,0829.8,5.01,0.00,29.4,27.8,00.0,38.2,31.2,18.9,0000.0,0003.08,0002.33,0001.99
2022-10-04 10:38:00,,0829.9,5.00,0.00,29.4,27.8,00.0,38.2,31.2,19.2,0000.0,0003.13,0002.36,0002.01
2022-10-04 10:39:00,,0829.9,4.99,0.00,29.4,27.8,00.0,38.2,31.2,18.8,0000.0,0003.04,0002.32,0002.01
2022-10-04 10:40:00,,0829.9,5.01,0.00,29.4,27.8,00.0,38.2,31.2,19.0,0000.0,0003.11,0002.33,0002.01
2022-10-04 10:41:00,,0829.8,4.99,0.00,29.4,27.8,00.0,38.2,31.2,19.5,0000.0,0003.22,0002.35,0002.02
2022-10-04 10:42:00,,0829.9,5.00,0.00,29.4,27.9,00.0,38.2,31.2,19.8,0000.0,0003.24,0002.38,0002.04
2022-10-04 10:43:00,,0829.9,5.00,0.00,29.4,27.9,00.0,38.2,31.2,20.2,0000.0,0003.13,0002.36,0002.05
2022-10-04 10:44:00,,0830.0,5.00,0.00,29.4,27.9,00.0,38.2,31.2,20.2,0000.0,0003.36,0002.36,0002.04
2022-10-04 10:45:00,,0830.0,5.00,0.00,29.4,27.9,00.0,38.2,31.2,20.1,0000.0,0003.76,0002.37,0002.04
2022-10-04 10:46:00,,0830.0,4.99,0.00,29.4,27.9,00.0,38.2,31.2,19.9,0000.0,0003.70,0002.34,0002.04
2022-10-04 10:47:00,,0830.0,5.01,0.00,29.4,27.9,00.0,38.2,31.3,19.7,0000.0,0003.66,0002.32,0002.04
2022-10-04 10:48:00,,0830.0,5.00,0.00,29.4,27.9,00.0,38.2,31.2,19.7,0000.0,0003.61,0002.31,0002.05
2022-10-04 10:49:00,,0830.1,5.01,0.00,29.4,27.9,00.0,38.2,31.3,19.7,0000.0,0003.51,0002.28,0002.04
2022-10-04 10:50:00,,0830.1,5.00,0.00,29.4,27.9,00.0,38.2,31.3,19.6,0000.0,0003.57,0002.33,0002.04
2022-10-04 10:51:00,,0830.1,4.99,0.00,29.4,27.9,00.0,38.2,31.2,19.7,0000.0,0003.51,0002.33,0002.05
2022-10-04 10:52:00,,0830.1,5.00,0.00,29.4,27.9,00.0,38.2,31.3,19.7,0000.0,0003.47,0002.31,0002.04
2022-10-04 10:53:00,,0830.1,5.01,0.00,29.4,27.9,00.0,38.2,31.2,19.5,0000.0,0003.62,0002.34,0002.03
2022-10-04 10:54:00,,0830.1,5.01,0.00,29.4,27.9,00.0,38.2,31.2,19.5,0000.0,0003.69,0002.36,0002.02
2022-10-04 10:55:00,,0830.1,4.99,0.00,29.4,27.9,00.0,38.2,31.3,19.4,0000.0,0003.83,0002.35,0002.02
2022-10-04 10:56:00,,0830.1,5.00,0.00,29.4,27.9,00.0,38.2,31.3,19.6,0000.0,0003.42,0002.31,0002.01
2022-10-04 10:57:00,,0830.1,5.00,0.00,29.4,27.9,00.0,38.2,31.3,20.9,0000.0,0003.57,0002.36,0002.05
2022-10-04 10:58:00,,0830.1,4.99,0.00,29.4,27.9,00.0,38.2,31.3,22.6,0000.0,0003.77,0002.51,0002.18
2022-10-04 10:59:00,,0830.1,5.01,0.00,29.4,27.9,00.0,38.2,31.3,23.3,0000.0,0004.18,0002.73,0002.33
